This demonstration page uses our WeatherBlox Daily Observations layout. Learn more.

Left ArrowRight Arrow

39.51506, -84.39828

Hourly Observations for April 28, 2020

Temp ( °F °C ) Dew Point ( °F °C ) Humidity (%) Winds ( mph kmh ) Pressure ( in mb ) Visibility ( mi km ) Precip ( " mm )
12:15 am 00:15 Cloudy 57 14 41 4.9 55 55 SSW 6 9 30.06 1018 N/A 0 0
12:35 am 00:35 Cloudy 56 13.6 42 5.8 60 60 S 6 9 30.06 1018 N/A 0 0
12:55 am 00:55 Cloudy 57 13.7 42 5.4 58 58 S 5 7 30.05 1018 N/A 0 0
1:15 am 01:15 Cloudy 57 13.9 41 5.1 56 56 S 6 9 30.05 1018 N/A 0 0
1:35 am 01:35 Cloudy 57 13.8 41 5.1 56 56 S 8 13 30.04 1017 N/A 0 0
1:55 am 01:55 Cloudy 57 13.9 41 5.1 56 56 S 9 15 30.04 1017 N/A 0 0
2:15 am 02:15 Cloudy 57 13.9 41 5.2 56 56 SSW 9 15 30.03 1017 N/A 0 0
2:35 am 02:35 Cloudy 57 14 42 5.6 57 57 SSW 8 13 30.02 1017 N/A 0 0
2:55 am 02:55 Cloudy 58 14.2 43 6 58 58 SSW 9 15 30.02 1017 N/A 0 0
3:15 am 03:15 Cloudy 58 14.2 43 6.1 58 58 S 8 13 30.01 1016 N/A 0 0
3:35 am 03:35 Cloudy 58 14.2 43 6.1 58 58 S 8 13 30.01 1016 N/A 0 0
3:55 am 03:55 Cloudy 57 14 43 6.2 60 60 S 10 17 30 1016 N/A 0 0
4:15 am 04:15 Cloudy 57 13.9 44 6.4 61 61 SSW 9 15 30.01 1016 N/A 0 0
4:35 am 04:35 Cloudy 57 13.9 44 6.6 62 62 SSW 8 13 30.01 1016 N/A 0 0
4:55 am 04:55 Cloudy 56 13.4 45 7 65 65 SSW 7 11 30 1016 N/A 0 0
5:15 am 05:15 Cloudy 57 13.9 44 6.8 63 63 SW 8 13 30 1016 N/A 0 0
5:35 am 05:35 Mostly Cloudy 56 13.6 44 6.6 63 63 SW 9 15 30 1016 N/A 0 0
5:55 am 05:55 Mostly Cloudy 56 13.4 44 6.6 64 64 SSW 10 17 30 1016 N/A 0 0
6:15 am 06:15 Partly Cloudy 56 13.2 44 6.6 65 65 SW 8 13 30 1016 N/A 0 0
6:35 am 06:35 Partly Cloudy 56 13.1 44 6.7 65 65 SSW 8 13 30 1016 N/A 0 0
6:55 am 06:55 Mostly Cloudy 55 13 44 6.9 67 67 SW 8 13 30 1016 N/A 0 0
7:15 am 07:15 Mostly Cloudy 55 12.5 45 7.1 70 70 SW 5 7 30.01 1016 N/A 0 0
7:35 am 07:35 Partly Cloudy 56 13.1 46 7.6 70 70 SW 8 13 30.01 1016 N/A 0 0
7:55 am 07:55 Sunny 57 14.1 46 7.8 66 66 SW 8 13 30.02 1017 N/A 0 0
8:15 am 08:15 Sunny 59 14.9 46 7.9 63 63 SSW 12 19 30.02 1016 N/A 0 0
8:35 am 08:35 Sunny 60 15.5 47 8.3 62 62 SW 12 19 30.02 1016 N/A 0 0
8:55 am 08:55 Sunny 61 16.1 48 8.7 62 62 SW 10 17 30.01 1016 N/A 0 0
9:15 am 09:15 Sunny 62 16.6 48 9 61 61 SW 13 20 30.01 1016 N/A 0 0
9:35 am 09:35 Sunny 63 17.3 49 9.5 60 60 SW 13 20 30.01 1016 N/A 0 0
9:55 am 09:55 Sunny 65 18.4 51 10.4 60 60 WSW 12 19 30.01 1016 N/A 0 0
10:15 am 10:15 Sunny 66 18.8 51 10.6 59 59 SW 12 19 30.01 1016 N/A 0 0
10:35 am 10:35 Partly Cloudy 67 19.5 51 10.8 57 57 WSW 13 20 30 1016 N/A 0 0
10:55 am 10:55 Mostly Cloudy 66 19 51 10.7 59 59 SW 13 20 30 1016 N/A 0 0
11:15 am 11:15 Sunny 68 19.8 52 11.2 58 58 SW 15 24 30 1016 N/A 0 0
11:35 am 11:35 Sunny 69 20.6 52 11.2 55 55 SSW 13 20 29.99 1016 N/A 0 0
11:55 am 11:55 Sunny 69 20.7 53 11.4 55 55 S 17 28 29.98 1015 N/A 0 0
12:15 pm 12:15 Sunny 69 20.5 52 11.3 56 56 SW 15 24 29.99 1016 N/A 0 0
12:35 pm 12:35 Sunny 69 20.8 52 11.3 55 55 SSW 16 26 29.98 1015 N/A 0 0
12:55 pm 12:55 Sunny 71 21.8 52 11.3 51 51 SW 17 28 29.97 1015 N/A 0 0
1:15 pm 13:15 Sunny 72 22 52 11.2 50 50 SSW 15 24 29.96 1015 N/A 0 0
1:35 pm 13:35 Sunny 73 22.5 53 11.5 50 50 SW 15 24 29.95 1014 N/A 0 0
1:55 pm 13:55 Sunny 74 23.2 52 11 46 46 SW 16 26 29.94 1014 N/A 0 0
2:15 pm 14:15 Partly Cloudy 74 23.2 52 11 46 46 SSW 9 15 29.93 1013 N/A 0 0
2:35 pm 14:35 Partly Cloudy 75 24.1 53 11.8 46 46 SSW 16 26 29.93 1013 N/A 0 0
2:55 pm 14:55 Cloudy 74 23.2 52 11 46 46 SSW 12 19 29.91 1013 N/A 0 0
3:15 pm 15:15 Mostly Cloudy 75 23.8 52 11.3 46 46 SSW 15 24 29.91 1013 N/A 0 0
3:35 pm 15:35 Mostly Cloudy 76 24.6 53 11.5 44 44 SSW 14 22 29.89 1012 N/A 0 0
3:55 pm 15:55 Partly Cloudy 76 24.4 52 11.2 44 44 SSW 15 24 29.88 1012 N/A 0 0
4:15 pm 16:15 Mostly Cloudy 76 24.5 52 11.2 43 43 SSW 13 20 29.87 1012 N/A 0 0
4:35 pm 16:35 Cloudy 74 23.5 52 11 45 45 S 17 28 29.88 1012 N/A 0 0
4:55 pm 16:55 Mostly Cloudy 75 23.9 51 10.8 44 44 SSW 18 30 29.88 1012 N/A 0 0
5:15 pm 17:15 Mostly Cloudy 76 24.4 52 11.1 43 43 SSW 17 28 29.86 1011 N/A 0 0
5:35 pm 17:35 Partly Cloudy 76 24.2 51 10.5 42 42 SSW 14 22 29.87 1011 N/A 0 0
5:55 pm 17:55 Sunny 76 24.4 51 10.4 41 41 SSW 18 30 29.85 1011 N/A 0 0
6:15 pm 18:15 Partly Cloudy 74 23.3 50 10.1 43 43 SW 20 31 29.87 1011 N/A 0 0
6:35 pm 18:35 Partly Cloudy 75 23.8 52 11 45 45 SSW 13 20 29.86 1011 N/A 0 0
6:55 pm 18:55 Mostly Cloudy 74 23.1 51 10.8 46 46 SSW 17 28 29.86 1011 N/A 0 0
7:15 pm 19:15 Mostly Cloudy 73 22.5 52 11.1 49 49 S 12 19 29.85 1011 N/A 0 0
7:35 pm 19:35 Mostly Cloudy 72 22.2 52 10.9 49 49 S 15 24 29.85 1011 N/A 0 0
7:55 pm 19:55 Sunny 71 21.5 52 10.9 51 51 S 15 24 29.84 1011 N/A 0 0
8:15 pm 20:15 Sunny 70 21 52 10.9 53 53 S 12 19 29.82 1010 N/A 0 0
8:35 pm 20:35 Cloudy 69 20.8 52 10.9 53 53 S 10 17 29.82 1010 N/A 0 0
8:55 pm 20:55 Cloudy 69 20.7 50 10.2 51 51 S 14 22 29.82 1010 N/A 0 0
9:15 pm 21:15 Mostly Cloudy 69 20.3 51 10.3 53 53 S 12 19 29.84 1011 N/A 0 0
9:35 pm 21:35 Cloudy 69 20.5 50 10.1 51 51 S 9 15 29.84 1011 N/A 0 0
9:55 pm 21:55 Partly Cloudy 68 19.8 50 9.8 53 53 S 10 17 29.85 1011 N/A 0 0
10:15 pm 22:15 Cloudy 68 19.9 50 9.8 52 52 SSE 10 17 29.84 1011 N/A 0 0
10:35 pm 22:35 Mostly Cloudy 67 19.6 49 9.7 53 53 SSE 13 20 29.83 1010 N/A 0 0
10:55 pm 22:55 Partly Cloudy 67 19.3 49 9.7 54 54 S 8 13 29.82 1010 N/A 0 0
11:15 pm 23:15 Cloudy 66 18.9 50 9.8 56 56 SSE 10 17 29.82 1010 N/A 0 0
11:35 pm 23:35 Mostly Cloudy 66 18.9 49 9.6 55 55 SSE 10 17 29.8 1009 N/A 0 0
11:55 pm 23:55 Partly Cloudy 66 18.7 49 9.2 54 54 S 10 17 29.8 1009 N/A 0 0

Powered by AerisWeather